Regional Weather Roundup
Issued by NWS

Home | Current Version | Previous Version | Graphics & Text | Print | Product List | Glossary On
Versions: 1 2 3 4 5 6 7 8 9 10 11 12 13 14 15 16 17 18 19 20 21 22 23 24 25 26 27
000
ASUS45 KBOU 231407
RWRCO

WEATHER ROUNDUP FOR COLORADO
NATIONAL WEATHER SERVICE DENVER/BOULDER CO
800 AM MDT THU MAR 23 2017

NOTE: "FAIR" INDICATES FEW OR NO CLOUDS BELOW 12000 FEET WITH NO
SIGNIFICANT WEATHER AND/OR OBSTRUCTIONS TO VISIBILITY.

COZ001>005-013-030-031-231500-
...NORTHWEST COLORADO...

CITY           SKY/WX    TMP DP  RH WIND       PRES   REMARKS
CRAIG          CLOUDY    41  34  76 N3        29.75S
HAYDEN         FAIR      43  27  52 NE5       29.75S
MEEKER         CLOUDY    47  33  58 W15       29.77R
MOUNT WERNER   NOT AVBL
STEAMBOAT SPGS FAIR      45  28  52 E8        29.76S
WALDEN         NOT AVBL
$$

COZ006>008-011-231500-
...WEST CENTRAL VALLEYS...

CITY           SKY/WX    TMP DP  RH WIND       PRES   REMARKS
GRAND JUNCTION CLOUDY    48  42  80 NW7       29.76R
MONTROSE       FAIR      47  28  47 W6        29.80R
EAGLE          PTCLDY    36  28  75 E7        29.83S
RIFLE          FAIR      56  24  29 S13G23    29.75R
DELTA          FAIR      52  31  44 W7        29.78S
NUCLA          MOCLDY    45  32  61 SW8       29.86R
$$

COZ017>023-064>068-231500-
...SOUTHWEST COLORADO...

CITY           SKY/WX    TMP DP  RH WIND       PRES   REMARKS
DURANGO        MOCLDY    42  26  53 SE5       29.87S
CORTEZ         MOCLDY    38  33  82 CALM      29.84S
PAGOSA SPRINGS CLOUDY    40  29  64 E3        29.92S
TELLURIDE      FAIR      39  22  49 SE6G18    29.89F
WOLF CREEK PAS CLOUDY    23  23 100 S17G31    30.03S WCI   9
$$

COZ009-010-012-014-032>034-037-058>063-231500-
...CENTRAL COLORADO...

CITY           SKY/WX    TMP DP  RH WIND       PRES   REMARKS
ASPEN          MOCLDY    38  31  76 S3        29.83S
BUENA VISTA    PTSUNNY   44  18  35 CALM      29.86R
COPPER MTN     FAIR      32  21  64 MISG      29.97S
BERTHOUD PASS  FAIR      27  14  59 SW13G20   29.98F WCI  16
COTTONWOOD PAS FAIR      43  12  28 SW8G18    29.92S
GUNNISON       FAIR      35  26  69 N7        29.86S WCI  29
KREMMLING      FAIR      41  30  65 E3        29.85S
LEADVILLE      FAIR      29  25  85 N5        29.89F WCI  24
MONARCH PASS   FAIR      28  16  59 SW33G41   30.07S WCI  12
SALIDA         FAIR      49  21  33 S7        29.93R
SUNLIGHT       FAIR      28  21  74 S14G24    29.94R WCI  17
WILKERSON PASS FAIR      32  16  51 S8G22     29.99R WCI  25
$$

COZ069>075-231500-
...SAN LUIS VALLEY/SANGRE DE CRISTO MOUNTAINS...

CITY           SKY/WX    TMP DP  RH WIND       PRES   REMARKS
ALAMOSA        FAIR      41  22  46 SW15      29.87S
LA VETA PASS   NOT AVBL
SAGUACHE       FAIR      39  21  48 SE7       29.90R
$$

COZ035-036-038>040-231500-
...NORTHERN COLORADO FRONT RANGE...

CITY           SKY/WX    TMP DP  RH WIND       PRES   REMARKS
DENVER INTL AP FAIR      50  27  40 SE12      29.71R
DMNS CITY PARK   N/A     53  29  40 E5G12     29.71S
AURORA         MOSUNNY   54  24  31 S8        29.72F
FRONT RANGE AP MOSUNNY   57  25  28 SW15G22   29.72S
ERIE MUNI ARPT FAIR      40  33  74 CALM      29.70F
BOULDER MUN AP FAIR      48  32  53 SW6       29.71S
CENTENNIAL     FAIR      55  21  26 S12       29.73S
BROOMFIELD     MOSUNNY   54  25  32 SW8       29.72F
FORT COLLINS   FAIR      41  38  89 CALM      29.71S
LONGMONT       FAIR      40  31  71 W6        29.73S
$$

COZ041-046-047-076>085-087-088-231500-
...PIKES PEAK/PALMER DIVIDE AND SOUTHERN FOOTHILLS...

CITY           SKY/WX    TMP DP  RH WIND       PRES   REMARKS
COLO. SPRINGS  FAIR      44  33  65 E6        29.77F
A. F. ACADEMY  FAIR      39  30  70 N9        29.77F
SCHRIEVER AFB  FAIR      45  32  60 MISG      29.78S
ELLICOTT         N/A    N/A N/A N/A SW5       29.76F
FALCON         FAIR      44  29  55 W5        29.81R
FORT CARSON    SUNNY     37  31  79 NW6       29.76S
LIMON          FOG       41  41 100 CALM      29.75S VSB 1/2
MONUMENT HILL  FAIR      43  28  56 S8        29.81F
TRINIDAD       FAIR      54  39  57 SW10      29.78S
$$

COZ042>045-048>051-090-091-231500-
...NORTHEAST COLORADO...

CITY           SKY/WX    TMP DP  RH WIND       PRES   REMARKS
GREELEY ARPT   FAIR      38  32  79 CALM      29.72R
AKRON          FAIR      47  42  83 SW10      29.70R
BURLINGTON     FAIR      50  47  89 S16       29.72S
WRAY           NOT AVBL
STERLING       FAIR      34  32  93 N6        29.71R WCI  29
HOLYOKE        FOG       37  36  93 SE3       29.69F VSB<1/4
FORT MORGAN    FAIR      39  35  86 N5        29.71R
$$

COZ086-089-092>099-231500-
...SOUTHEAST COLORADO...

CITY           SKY/WX    TMP DP  RH WIND       PRES   REMARKS
PUEBLO         FAIR      41  32  70 W5        29.72S
LA JUNTA       FAIR      58  46  64 W10       29.70F
LAMAR          FAIR      55  47  74 S12       29.68S
SPRINGFIELD      N/A     50  48  93 S12       29.76F
$$




USA.gov is the U.S. government's official web portal to all federal, state and local government web resources and services.